FW6864 Weather Reports


Display with metric or nautical units.
time (UTC)temp
F
wind
direction
speed
MPH
gust
MPH
rain 1hr
in
rain 24hr
in
rain mn
in
humidity
%
barometer
mb
20260507075329 54 331 2.0 5.0 0.00 0.08 0.08 85 1012.2
20260507074826 54 0 2.0 5.0 0.00 0.08 0.08 84 1012.2
20260507074323 54 46 2.0 5.0 0.00 0.08 0.08 85 1012.2
20260507073820 54 320 2.0 5.0 0.00 0.08 0.08 85 1011.9
20260507073317 54 49 1.0 6.0 0.00 0.08 0.08 86 1012.2
20260507072814 54 0 2.0 9.0 0.00 0.08 0.08 86 1012.2
20260507072312 54 0 3.0 9.0 0.00 0.08 0.08 86 1011.9
20260507071809 55 348 3.0 11.0 0.00 0.08 0.08 86 1011.9
20260507071305 55 329 4.0 11.0 0.00 0.08 0.08 85 1011.9
20260507070802 55 338 3.0 9.0 0.00 0.08 0.08 86 1011.9
20260507070259 55 351 3.0 9.0 0.00 0.08 0.08 86 1011.9
20260507065756 55 348 3.0 8.0 0.00 0.08 0.08 86 1012.2
20260507065253 55 335 2.0 8.0 0.00 0.08 0.08 87 1012.2
20260507064750 55 349 1.0 8.0 0.00 0.08 0.08 87 1012.6
20260507064249 55 345 1.0 8.0 0.00 0.08 0.08 87 1012.2
20260507063746 56 344 2.0 8.0 0.00 0.08 0.08 87 1012.2
20260507063243 56 21 3.0 8.0 0.00 0.08 0.08 87 1011.5
20260507062740 56 313 3.0 8.0 0.01 0.08 0.08 88 1011.9
20260507062237 56 343 2.0 5.0 0.01 0.08 0.08 88 1011.9
20260507061735 56 350 1.0 4.0 0.02 0.08 0.08 88 1011.9
20260507061232 57 351 1.0 4.0 0.03 0.08 0.08 88 1011.9
20260507060730 57 336 1.0 5.0 0.05 0.08 0.08 88 1012.2
20260507060227 57 340 1.0 5.0 0.07 0.08 0.08 88 1011.9
20260507055723 57 350 1.0 5.0 0.08 0.08 0.08 88 1011.9
20260507055219 57 19 0.0 5.0 0.08 0.08 0.08 88 1012.6
20260507054715 57 346 0.0 4.0 0.08 0.08 0.08 88 1012.2
20260507054212 58 346 1.0 4.0 0.08 0.08 0.08 87 1011.9
20260507053709 58 347 1.0 4.0 0.08 0.08 0.08 87 1012.2
20260507053207 58 342 0.0 3.0 0.08 0.08 0.08 86 1012.2
20260507052706 58 28 0.0 3.0 0.07 0.07 0.07 86 1012.6
20260507052201 59 28 0.0 3.0 0.07 0.07 0.07 86 1012.6
20260507051700 59 29 1.0 3.0 0.06 0.07 0.07 85 1012.2
20260507051156 59 5 1.0 9.0 0.05 0.05 0.05 85 1012.6
20260507050653 59 5 2.0 9.0 0.03 0.04 0.04 84 1012.2
20260507050149 60 5 3.0 9.0 0.01 0.01 0.01 82 1012.6
20260507045646 60 355 3.0 9.0 0.00 0.00 0.00 81 1012.6
20260507045143 60 327 2.0 8.0 0.00 0.00 0.00 80 1012.2
20260507044640 61 346 2.0 6.0 0.00 0.00 0.00 79 1012.2
20260507044137 61 41 3.0 11.0 0.00 0.00 0.00 78 1011.9
20260507043633 61 0 4.0 11.0 0.00 0.00 0.00 78 1012.2
20260507043130 61 350 5.0 11.0 0.00 0.00 0.00 78 1011.9
20260507042626 62 355 5.0 11.0 0.00 0.00 0.00 77 1012.2
20260507042121 62 333 3.0 11.0 0.00 0.00 0.00 77 1011.9
20260507041618 63 330 3.0 10.0 0.00 0.00 0.00 76 1011.9
20260507041115 63 0 3.0 10.0 0.00 0.00 0.00 76 1011.9
20260507040612 63 355 2.0 10.0 0.00 0.00 0.00 76 1011.5
20260507040108 63 346 2.0 7.0 0.00 0.00 0.00 76 1011.5
20260507035604 63 15 2.0 6.0 0.00 0.15 0.15 76 1011.2
20260507035100 63 346 2.0 5.0 0.00 0.15 0.15 76 1011.2
20260507034557 63 346 1.0 8.0 0.00 0.15 0.15 75 1010.9
20260507034055 64 30 1.0 8.0 0.00 0.15 0.15 75 1011.2
20260507033553 64 341 2.0 8.0 0.00 0.15 0.15 75 1011.5
20260507033050 64 350 2.0 8.0 0.00 0.15 0.15 75 1011.5
20260507032547 64 336 3.0 8.0 0.00 0.15 0.15 75 1011.5
20260507032043 64 355 2.0 8.0 0.00 0.15 0.15 74 1011.5
20260507031540 64 10 0.0 3.0 0.00 0.15 0.15 75 1011.5
20260507031037 64 161 0.0 5.0 0.00 0.15 0.15 74 1011.5
20260507030534 64 161 1.0 5.0 0.00 0.15 0.15 74 1011.5
20260507030032 64 18 1.0 5.0 0.00 0.15 0.15 74 1011.2
20260507025528 65 344 2.0 5.0 0.00 0.15 0.15 74 1010.9
20260507025026 65 23 1.0 5.0 0.00 0.15 0.15 74 1010.9
20260507024524 65 49 1.0 8.0 0.00 0.15 0.15 75 1011.2
20260507024020 65 0 1.0 8.0 0.00 0.15 0.15 75 1010.9
20260507023516 65 21 3.0 11.0 0.00 0.15 0.15 75 1010.9
20260507023014 65 355 4.0 11.0 0.00 0.15 0.15 75 1010.9
20260507022510 66 355 4.0 10.0 0.00 0.15 0.15 75 1010.5
20260507022006 66 343 4.0 10.0 0.00 0.15 0.15 75 1010.9
20260507021502 67 5 4.0 10.0 0.00 0.15 0.15 77 1010.9
20260507020959 67 15 2.0 10.0 0.00 0.15 0.15 77 1010.9
20260507020456 67 355 1.0 8.0 0.00 0.15 0.15 78 1010.9
20260507015953 67 158 1.0 8.0 0.00 0.15 0.15 78 1010.9
20260507015451 68 55 1.0 8.0 0.00 0.15 0.15 78 1010.5
20260507014948 68 355 1.0 8.0 0.00 0.15 0.15 78 1010.2
20260507014444 68 22 1.0 5.0 0.00 0.15 0.15 78 1010.9
20260507013940 68 5 1.0 5.0 0.00 0.15 0.15 78 1010.9
20260507013437 68 69 0.0 5.0 0.00 0.15 0.15 79 1010.9
20260507012935 68 337 0.0 3.0 0.00 0.15 0.15 80 1010.9
20260507012432 68 197 0.0 0.0 0.00 0.15 0.15 80 1010.5
20260507011928 68 198 0.0 0.0 0.00 0.15 0.15 80 1010.9
20260507011426 68 198 0.0 0.0 0.00 0.15 0.15 80 1010.9
20260507010925 68 198 0.0 0.0 0.00 0.15 0.15 79 1010.9
20260507010421 68 198 0.0 0.0 0.00 0.15 0.15 79 1010.5
20260507005918 68 198 0.0 0.0 0.00 0.15 0.15 79 1010.5
20260507005415 68 198 0.0 0.0 0.00 0.15 0.15 79 1010.5
20260507004911 68 198 0.0 0.0 0.00 0.15 0.15 79 1010.5
20260507004408 68 198 0.0 0.0 0.00 0.15 0.15 79 1010.5
20260507003906 68 198 0.0 0.0 0.00 0.15 0.15 79 1010.2
20260507003401 68 198 0.0 0.0 0.00 0.15 0.15 79 1010.2
20260507002856 68 198 0.0 0.0 0.00 0.15 0.15 79 1010.5
20260507002352 68 198 0.0 0.0 0.00 0.15 0.15 78 1010.5
20260507001850 68 198 0.0 0.0 0.00 0.15 0.15 78 1010.2
20260507001346 68 135 0.0 0.0 0.00 0.15 0.15 78 1010.2
20260507000843 68 129 0.0 0.0 0.00 0.15 0.15 78 1010.2
20260507000338 69 129 0.0 0.0 0.00 0.15 0.15 78 1010.2
20260506235835 69 129 0.0 0.0 0.00 0.15 0.15 78 1010.2
20260506235332 69 129 0.0 0.0 0.00 0.15 0.15 78 1009.9
20260506234828 69 129 0.0 0.0 0.00 0.15 0.15 78 1009.9
20260506234326 69 129 0.0 0.0 0.00 0.15 0.15 77 1009.9
20260506233823 69 129 0.0 0.0 0.00 0.15 0.15 77 1009.9
20260506233319 69 129 0.0 0.0 0.00 0.15 0.15 77 1009.9
20260506232817 69 129 0.0 0.0 0.00 0.15 0.15 77 1009.9
20260506232312 69 129 0.0 0.0 0.00 0.15 0.15 77 1009.5
20260506231809 69 128 0.0 0.0 0.00 0.15 0.15 77 1009.5
20260506231307 69 128 0.0 1.0 0.00 0.15 0.15 76 1009.5
20260506230804 69 205 0.0 1.0 0.00 0.15 0.15 76 1009.9
20260506230300 70 159 0.0 4.0 0.00 0.15 0.15 76 1009.9
20260506225756 70 146 0.0 4.0 0.00 0.15 0.15 76 1009.9
20260506225254 70 146 0.0 4.0 0.00 0.15 0.15 76 1009.9
20260506224750 70 146 0.0 4.0 0.00 0.15 0.15 76 1009.2
20260506224248 70 139 0.0 4.0 0.00 0.15 0.15 76 1009.5
20260506223744 70 180 0.0 1.0 0.00 0.15 0.15 76 1009.2
20260506223239 70 180 0.0 3.0 0.00 0.15 0.15 76 1009.5
20260506222737 70 177 0.0 3.0 0.00 0.15 0.15 76 1009.5
20260506222232 70 207 0.0 4.0 0.00 0.15 0.15 75 1009.9
20260506221730 70 170 0.0 4.0 0.00 0.15 0.15 76 1009.5
20260506221228 70 170 0.0 4.0 0.00 0.15 0.15 75 1009.5
20260506220725 70 223 0.0 3.0 0.00 0.15 0.15 75 1009.5
20260506220219 70 223 0.0 3.0 0.00 0.15 0.15 75 1009.5
20260506215716 70 223 0.0 3.0 0.00 0.15 0.15 75 1009.5
20260506215212 71 223 0.0 3.0 0.00 0.15 0.15 74 1009.5
20260506214709 71 223 0.0 2.0 0.00 0.15 0.15 74 1009.5
20260506214206 71 153 0.0 1.0 0.00 0.15 0.15 74 1009.5
20260506213705 71 151 0.0 1.0 0.00 0.15 0.15 74 1009.2
20260506213202 71 148 0.0 3.0 0.00 0.15 0.15 75 1009.2
20260506212659 71 105 0.0 3.0 0.00 0.15 0.15 74 1009.2
20260506212154 71 103 1.0 4.0 0.00 0.15 0.15 74 1009.2
20260506211649 70 279 1.0 4.0 0.00 0.15 0.15 74 1009.2
20260506211146 71 180 1.0 4.0 0.00 0.15 0.15 75 1009.2
20260506210643 70 177 1.0 4.0 0.00 0.15 0.15 74 1009.2
20260506210140 70 178 0.0 1.0 0.00 0.15 0.15 74 1008.8
20260506205637 70 244 0.0 0.0 0.00 0.15 0.15 74 1009.2
20260506205131 70 223 0.0 3.0 0.00 0.15 0.15 74 1008.8
20260506204630 70 158 0.0 3.0 0.00 0.15 0.15 75 1008.8
20260506204126 70 192 1.0 4.0 0.00 0.15 0.15 74 1008.8
20260506203625 70 201 1.0 4.0 0.00 0.15 0.15 74 1008.8
20260506203121 70 198 2.0 7.0 0.00 0.15 0.15 74 1009.2
20260506202619 71 240 2.0 7.0 0.00 0.15 0.15 73 1009.2
20260506202115 71 192 2.0 7.0 0.00 0.15 0.15 73 1008.8
20260506201612 71 236 1.0 7.0 0.00 0.15 0.15 73 1008.8
20260506201109 71 169 1.0 4.0 0.00 0.15 0.15 73 1008.8
20260506200605 71 261 2.0 4.0 0.00 0.15 0.15 72 1008.8
20260506195559 71 246 2.0 5.0 0.00 0.15 0.15 72 1008.8
20260506195055 71 184 1.0 5.0 0.00 0.15 0.15 73 1008.8
20260506194553 71 269 1.0 4.0 0.00 0.15 0.15 73 1008.8
20260506194049 71 227 1.0 4.0 0.00 0.15 0.15 74 1008.8
20260506193547 71 249 1.0 4.0 0.00 0.15 0.15 74 1008.8
20260506193044 71 246 0.0 4.0 0.00 0.15 0.15 74 1008.8
20260506192541 70 206 0.0 4.0 0.00 0.15 0.15 76 1008.8
20260506192036 70 210 1.0 5.0 0.00 0.15 0.15 74 1009.2
20260506191534 70 250 2.0 5.0 0.00 0.15 0.15 75 1009.2
20260506191029 69 274 2.0 4.0 0.00 0.15 0.15 76 1009.2
20260506190527 69 218 2.0 4.0 0.00 0.15 0.15 76 1009.2
20260506190024 69 254 1.0 5.0 0.00 0.15 0.15 77 1009.5
20260506185521 69 179 1.0 5.0 0.00 0.15 0.15 77 1009.2
20260506185017 68 355 0.0 6.0 0.00 0.15 0.15 78 1009.5
20260506184515 68 243 1.0 6.0 0.00 0.15 0.15 78 1009.5
20260506184012 68 195 2.0 7.0 0.00 0.15 0.15 78 1009.5
20260506183507 67 269 2.0 7.0 0.00 0.15 0.15 79 1009.5
20260506183005 67 220 2.0 7.0 0.00 0.15 0.15 79 1009.5
20260506182502 67 178 2.0 7.0 0.00 0.15 0.15 78 1009.5
20260506181959 67 197 2.0 6.0 0.00 0.15 0.15 80 1009.5
20260506181457 67 277 2.0 5.0 0.00 0.15 0.15 79 1009.9
20260506180953 67 184 2.0 7.0 0.00 0.15 0.15 80 1009.9
20260506180450 66 194 3.0 7.0 0.00 0.15 0.15 80 1009.9
20260506175946 66 228 3.0 8.0 0.00 0.15 0.15 80 1009.9
20260506175443 66 250 3.0 8.0 0.00 0.15 0.15 80 1009.9
20260506174940 66 243 3.0 8.0 0.00 0.15 0.15 81 1009.9
20260506174438 66 267 3.0 8.0 0.00 0.15 0.15 81 1009.9
20260506173934 66 174 2.0 8.0 0.00 0.15 0.15 82 1009.9
20260506173431 65 211 2.0 5.0 0.00 0.15 0.15 84 1009.9
20260506172928 65 250 2.0 5.0 0.00 0.15 0.15 84 1009.9
20260506172426 65 237 2.0 5.0 0.00 0.15 0.15 85 1009.9
20260506171922 64 246 2.0 7.0 0.00 0.15 0.15 84 1010.2
20260506171420 64 174 2.0 7.0 0.00 0.15 0.15 86 1010.2
20260506170918 64 256 2.0 7.0 0.00 0.15 0.15 86 1010.2
20260506170414 64 313 2.0 7.0 0.00 0.15 0.15 87 1010.2
20260506165913 63 223 2.0 7.0 0.00 0.15 0.15 88 1009.9
20260506165410 63 223 1.0 6.0 0.00 0.15 0.15 89 1010.2
20260506164901 63 288 1.0 4.0 0.00 0.15 0.15 89 1010.2
20260506164357 63 245 2.0 4.0 0.00 0.15 0.15 89 1010.2
20260506163855 62 237 1.0 4.0 0.00 0.15 0.15 89 1010.2
20260506163349 62 155 1.0 6.0 0.00 0.15 0.15 90 1010.5
20260506162844 62 227 1.0 6.0 0.00 0.15 0.15 90 1010.2
20260506162343 62 211 1.0 6.0 0.00 0.15 0.15 89 1010.2
20260506161840 62 209 2.0 6.0 0.00 0.15 0.15 90 1010.5
20260506161337 62 294 2.0 6.0 0.00 0.15 0.15 90 1010.5
20260506160835 62 191 2.0 6.0 0.00 0.15 0.15 90 1010.5
20260506160331 62 144 2.0 6.0 0.00 0.15 0.15 90 1010.5
20260506155830 62 215 2.0 6.0 0.01 0.15 0.15 90 1010.5
20260506155326 62 205 1.0 5.0 0.01 0.15 0.15 90 1010.5
20260506153439 62 222 1.0 8.0 0.04 0.15 0.15 90 1010.5
20260506152936 62 158 1.0 8.0 0.05 0.15 0.15 90 1010.5
20260506152433 62 152 1.0 8.0 0.05 0.15 0.15 90 1010.5
20260506151931 62 153 1.0 3.0 0.06 0.15 0.15 91 1010.9
20260506151428 61 109 1.0 8.0 0.06 0.15 0.15 90 1010.9
20260506150926 61 215 1.0 8.0 0.07 0.15 0.15 90 1011.2
20260506150421 61 237 1.0 5.0 0.07 0.15 0.15 90 1011.2
20260506145919 61 193 1.0 5.0 0.07 0.15 0.15 90 1011.2
20260506145415 61 257 1.0 6.0 0.08 0.14 0.14 89 1011.5
20260506144913 61 171 1.0 8.0 0.08 0.13 0.13 89 1011.5
20260506144409 61 188 1.0 8.0 0.07 0.13 0.13 89 1011.2
20260506143907 61 188 1.0 8.0 0.08 0.12 0.12 89 1011.5
20260506143404 61 248 1.0 8.0 0.07 0.11 0.11 89 1011.2
20260506142902 61 221 1.0 4.0 0.07 0.10 0.10 89 1011.2
20260506142400 61 223 0.0 2.0 0.07 0.10 0.10 88 1011.2
20260506141858 61 221 1.0 5.0 0.07 0.09 0.09 88 1011.2
20260506141355 62 169 1.0 5.0 0.07 0.09 0.09 88 1011.2
20260506140853 62 254 0.0 5.0 0.07 0.08 0.08 88 1011.2
20260506140350 62 168 0.0 5.0 0.07 0.08 0.08 88 1011.5
20260506135847 62 184 0.0 4.0 0.06 0.07 0.07 87 1011.2
20260506135344 62 154 0.0 2.0 0.05 0.06 0.06 87 1011.5
20260506134840 62 198 0.0 3.0 0.04 0.05 0.05 87 1011.5
20260506134337 62 198 1.0 3.0 0.05 0.05 0.05 86 1011.5
20260506133834 62 202 1.0 3.0 0.04 0.04 0.04 86 1011.9
20260506133330 62 240 1.0 3.0 0.04 0.04 0.04 86 1011.9
20260506132827 63 206 1.0 3.0 0.03 0.03 0.03 85 1011.9
20260506132324 63 174 1.0 3.0 0.03 0.03 0.03 85 1011.5
20260506131822 63 231 1.0 3.0 0.02 0.02 0.02 84 1011.5
20260506131318 63 241 0.0 3.0 0.02 0.02 0.02 84 1011.5
20260506130816 63 241 0.0 4.0 0.01 0.01 0.01 83 1011.5
20260506130312 64 198 0.0 4.0 0.01 0.01 0.01 83 1011.2
20260506125810 64 219 1.0 5.0 0.01 0.01 0.01 82 1011.2
20260506125308 64 171 1.0 5.0 0.01 0.01 0.01 82 1011.2
20260506124807 64 240 1.0 5.0 0.01 0.01 0.01 81 1011.2
20260506124303 64 163 0.0 4.0 0.00 0.00 0.00 80 1011.2
20260506123800 64 212 1.0 5.0 0.00 0.00 0.00 80 1011.2
20260506123259 64 211 1.0 5.0 0.00 0.00 0.00 80 1011.2
20260506122755 64 198 2.0 5.0 0.00 0.00 0.00 80 1011.5
20260506122252 64 249 2.0 5.0 0.00 0.00 0.00 80 1011.5
20260506121751 64 241 2.0 5.0 0.00 0.00 0.00 80 1011.5
20260506121247 64 194 2.0 6.0 0.00 0.00 0.00 80 1011.5
20260506120745 65 184 2.0 6.0 0.00 0.00 0.00 80 1011.5
20260506120242 65 242 2.0 6.0 0.00 0.00 0.00 79 1011.5
20260506115740 66 225 2.0 6.0 0.00 0.00 0.00 78 1011.5
20260506115238 66 200 1.0 5.0 0.00 0.00 0.00 76 1011.5
20260506114736 66 200 1.0 5.0 0.00 0.00 0.00 75 1011.5
20260506114233 66 169 1.0 7.0 0.00 0.00 0.00 75 1011.5
20260506113731 66 233 1.0 7.0 0.00 0.00 0.00 75 1011.2
20260506113228 66 215 1.0 7.0 0.00 0.00 0.00 75 1011.2
20260506112724 67 179 1.0 7.0 0.00 0.00 0.00 74 1010.9
20260506112222 66 204 1.0 10.0 0.00 0.00 0.00 75 1010.9
20260506111720 66 160 2.0 10.0 0.00 0.00 0.00 75 1010.9
20260506111218 66 193 2.0 10.0 0.00 0.00 0.00 75 1010.9
20260506110714 66 190 1.0 10.0 0.00 0.00 0.00 75 1010.9
20260506110212 66 177 1.0 3.0 0.00 0.00 0.00 75 1010.9
20260506105708 66 233 1.0 3.0 0.00 0.00 0.00 75 1010.9
20260506105205 66 192 1.0 6.0 0.00 0.00 0.00 75 1010.5
20260506104703 66 251 2.0 6.0 0.00 0.00 0.00 74 1010.5
20260506104200 66 200 1.0 9.0 0.00 0.00 0.00 75 1010.5
20260506103657 66 181 1.0 9.0 0.00 0.00 0.00 74 1010.5
20260506103154 66 172 1.0 7.0 0.00 0.00 0.00 74 1010.5
20260506102652 66 262 1.0 7.0 0.00 0.00 0.00 74 1010.5
20260506102149 66 211 1.0 4.0 0.00 0.00 0.00 74 1010.5
20260506101646 66 182 1.0 5.0 0.00 0.00 0.00 74 1010.9
20260506101143 66 257 1.0 5.0 0.00 0.00 0.00 74 1010.5
20260506100642 66 14 2.0 5.0 0.00 0.00 0.00 74 1010.5
20260506100139 66 256 2.0 5.0 0.00 0.00 0.00 74 1010.5
20260506095638 66 246 2.0 6.0 0.00 0.00 0.00 74 1010.5
20260506095134 66 200 2.0 6.0 0.00 0.00 0.00 74 1010.5
20260506094632 66 192 2.0 6.0 0.00 0.00 0.00 74 1010.5
20260506094129 66 208 2.0 7.0 0.00 0.00 0.00 74 1010.9
20260506093628 66 202 1.0 7.0 0.00 0.00 0.00 74 1010.5
20260506093124 66 192 1.0 4.0 0.00 0.00 0.00 74 1010.9
20260506092622 66 190 1.0 3.0 0.00 0.00 0.00 73 1010.5
20260506092119 67 238 1.0 3.0 0.00 0.00 0.00 73 1010.5
20260506091617 67 242 1.0 4.0 0.00 0.00 0.00 73 1010.9
20260506091114 67 214 1.0 4.0 0.00 0.00 0.00 73 1010.5
20260506090613 67 184 0.0 4.0 0.00 0.00 0.00 72 1010.5
20260506090108 67 222 1.0 6.0 0.00 0.00 0.00 72 1010.9
20260506085605 67 152 2.0 6.0 0.00 0.00 0.00 72 1010.9
20260506085102 68 243 2.0 6.0 0.00 0.00 0.00 71 1010.9
20260506084558 68 189 1.0 6.0 0.00 0.00 0.00 71 1010.9
20260506084055 68 207 1.0 4.0 0.00 0.00 0.00 71 1010.9
20260506083552 68 216 1.0 5.0 0.00 0.00 0.00 71 1010.9
20260506083049 68 198 1.0 5.0 0.00 0.00 0.00 70 1010.9
20260506082546 68 189 1.0 3.0 0.00 0.00 0.00 70 1010.9
20260506082042 68 210 1.0 3.0 0.00 0.00 0.00 70 1010.9
20260506081540 68 148 1.0 3.0 0.00 0.00 0.00 69 1010.9
20260506081037 68 171 1.0 3.0 0.00 0.00 0.00 69 1010.9
20260506080535 68 248 1.0 4.0 0.00 0.00 0.00 69 1010.5